AAL2500 KLGA-KORD

Flight info

Callsign AAL2500
Flight time 2h 3m
Altitude 30000
Route GLDMN8 GLDMN COATE Q436 KAYYS WYNDE3
Aircraft B738/M-SDE2E3FGHIRWXY/LB1

Departure

Time 2026-05-06 00:05
Airport LaGuardia Airport (KLGA)

Arrival

Time 2026-05-06 02:09
Airport Chicago O'Hare International Airport (KORD)
Time Latitude Longitude Altitude Speed Heading
2026-05-05 23:23 40.77522 -73.87352 30 ft 0 kts 110°
2026-05-05 23:45 40.77523 -73.87355 30 ft 1 kts 109°
2026-05-05 23:46 40.77526 -73.87372 30 ft 2 kts 81°
2026-05-05 23:46 40.77524 -73.87384 30 ft 2 kts 27°
2026-05-05 23:46 40.77512 -73.87387 30 ft 2 kts 349°
2026-05-05 23:46 40.77506 -73.87386 30 ft 0 kts 346°
2026-05-05 23:56 40.77509 -73.87386 30 ft 1 kts 346°
2026-05-05 23:57 40.77530 -73.87393 30 ft 5 kts 346°
2026-05-05 23:57 40.77581 -73.87409 30 ft 10 kts 346°
2026-05-05 23:57 40.77645 -73.87432 30 ft 10 kts 342°
2026-05-05 23:57 40.77685 -73.87420 30 ft 6 kts 57°
2026-05-05 23:58 40.77725 -73.87358 30 ft 11 kts 13°
2026-05-05 23:58 40.77800 -73.87381 30 ft 14 kts 311°
2026-05-05 23:58 40.77839 -73.87461 30 ft 0 kts 297°
2026-05-05 23:58 40.77866 -73.87529 30 ft 7 kts 297°
2026-05-05 23:59 40.77870 -73.87538 30 ft 0 kts 297°
2026-05-06 00:02 40.77872 -73.87544 30 ft 3 kts 297°
2026-05-06 00:02 40.77893 -73.87597 30 ft 10 kts 297°
2026-05-06 00:02 40.77938 -73.87709 30 ft 17 kts 297°
2026-05-06 00:03 40.77989 -73.87818 30 ft 14 kts 316°
2026-05-06 00:03 40.78103 -73.87876 30 ft 21 kts 358°
2026-05-06 00:03 40.78231 -73.87802 30 ft 18 kts 70°
2026-05-06 00:03 40.78185 -73.87728 30 ft 7 kts 129°
2026-05-06 00:04 40.78181 -73.87720 30 ft 0 kts 129°
2026-05-06 00:04 40.78119 -73.87590 30 ft 51 kts 115°
2026-05-06 00:04 40.77785 -73.86924 30 ft 122 kts 121°
2026-05-06 00:05 40.76684 -73.84666 1153 ft 158 kts 131°
2026-05-06 00:05 40.75927 -73.83587 1540 ft 167 kts 160°
2026-05-06 00:05 40.74758 -73.83078 1922 ft 187 kts 175°
2026-05-06 00:06 40.73382 -73.82801 2305 ft 206 kts 178°
2026-05-06 00:06 40.72050 -73.83060 3174 ft 190 kts 210°
2026-05-06 00:06 40.70983 -73.84117 3764 ft 200 kts 225°
2026-05-06 00:06 40.69863 -73.85252 4572 ft 205 kts 222°
2026-05-06 00:07 40.68788 -73.86518 5387 ft 206 kts 229°
2026-05-06 00:07 40.67905 -73.87969 6188 ft 206 kts 248°
2026-05-06 00:07 40.67690 -73.89843 6974 ft 211 kts 277°
2026-05-06 00:07 40.68179 -73.91700 7626 ft 227 kts 291°
2026-05-06 00:08 40.68920 -73.93648 8047 ft 248 kts 293°
2026-05-06 00:08 40.69756 -73.95695 8712 ft 257 kts 294°
2026-05-06 00:08 40.70721 -73.97692 9527 ft 263 kts 301°
2026-05-06 00:08 40.71851 -73.99634 10313 ft 269 kts 303°
2026-05-06 00:09 40.73037 -74.01589 10993 ft 277 kts 304°
2026-05-06 00:09 40.74265 -74.03616 11560 ft 290 kts 304°
2026-05-06 00:09 40.75544 -74.05736 11973 ft 305 kts 304°
2026-05-06 00:09 40.76900 -74.07985 12379 ft 322 kts 305°
2026-05-06 00:10 40.78333 -74.10359 12698 ft 339 kts 305°
2026-05-06 00:10 40.79852 -74.12885 12987 ft 356 kts 304°
2026-05-06 00:10 40.81421 -74.15502 13374 ft 368 kts 305°
2026-05-06 00:10 40.83015 -74.18161 13905 ft 375 kts 305°
2026-05-06 00:11 40.84651 -74.20893 14449 ft 382 kts 304°
2026-05-06 00:11 40.86299 -74.23648 15068 ft 385 kts 305°
2026-05-06 00:11 40.87966 -74.26437 15683 ft 388 kts 305°
2026-05-06 00:11 40.89648 -74.29254 16264 ft 392 kts 305°
2026-05-06 00:12 40.91329 -74.32074 16865 ft 395 kts 306°
2026-05-06 00:12 40.93059 -74.34946 17420 ft 398 kts 306°
2026-05-06 00:12 40.94792 -74.37808 17959 ft 402 kts 306°
2026-05-06 00:12 40.96483 -74.40609 18470 ft 405 kts 306°
2026-05-06 00:13 40.98310 -74.43658 19013 ft 408 kts 306°
2026-05-06 00:13 41.00042 -74.46565 19501 ft 411 kts 306°
2026-05-06 00:13 41.01808 -74.49537 20045 ft 413 kts 306°
2026-05-06 00:13 41.03583 -74.52533 20566 ft 414 kts 306°
2026-05-06 00:14 41.05363 -74.55541 21100 ft 416 kts 306°
2026-05-06 00:14 41.07146 -74.58559 21571 ft 418 kts 306°
2026-05-06 00:14 41.08941 -74.61599 22021 ft 420 kts 306°
2026-05-06 00:14 41.10740 -74.64648 22459 ft 422 kts 306°
2026-05-06 00:15 41.12549 -74.67715 22862 ft 424 kts 305°
2026-05-06 00:15 41.14265 -74.70954 23274 ft 425 kts 300°
2026-05-06 00:15 41.15791 -74.74314 23665 ft 426 kts 298°
2026-05-06 00:15 41.17260 -74.77731 24001 ft 429 kts 297°
2026-05-06 00:16 41.18746 -74.81192 24194 ft 435 kts 297°
2026-05-06 00:16 41.20244 -74.84682 24619 ft 435 kts 297°
2026-05-06 00:16 41.21724 -74.88125 25058 ft 435 kts 297°
2026-05-06 00:16 41.23243 -74.91655 25415 ft 437 kts 297°
2026-05-06 00:17 41.24751 -74.95156 25768 ft 438 kts 297°
2026-05-06 00:17 41.26268 -74.98679 26112 ft 440 kts 297°
2026-05-06 00:17 41.27189 -75.00818 26345 ft 439 kts 297°
2026-05-06 00:17 41.28553 -75.03988 26856 ft 435 kts 297°
2026-05-06 00:18 41.30048 -75.07462 27362 ft 432 kts 297°
2026-05-06 00:18 41.31542 -75.10905 28002 ft 425 kts 298°
2026-05-06 00:18 41.33022 -75.14269 28604 ft 420 kts 298°
2026-05-06 00:18 41.34503 -75.17666 29058 ft 418 kts 298°
2026-05-06 00:19 41.35944 -75.20997 29574 ft 414 kts 298°
2026-05-06 00:19 41.37351 -75.24267 29941 ft 413 kts 298°
2026-05-06 00:19 41.38791 -75.27625 30038 ft 413 kts 298°
2026-05-06 00:20 41.41617 -75.34242 30050 ft 409 kts 298°
2026-05-06 00:20 41.44413 -75.40805 30053 ft 409 kts 298°
2026-05-06 00:21 41.47189 -75.47408 30053 ft 409 kts 296°
2026-05-06 00:21 41.49328 -75.54114 30053 ft 404 kts 291°
2026-05-06 00:22 41.51330 -75.61113 30053 ft 405 kts 290°
2026-05-06 00:22 41.53340 -75.68161 30053 ft 405 kts 290°
2026-05-06 00:23 41.55332 -75.75161 30053 ft 403 kts 290°
2026-05-06 00:23 41.57319 -75.82141 30053 ft 403 kts 290°
2026-05-06 00:24 41.59316 -75.89137 30053 ft 404 kts 290°
2026-05-06 00:24 41.61304 -75.96152 30053 ft 403 kts 290°
2026-05-06 00:25 41.63265 -76.03147 30053 ft 402 kts 290°
2026-05-06 00:25 41.64900 -76.09005 30053 ft 402 kts 290°
2026-05-06 00:26 41.66847 -76.15997 30053 ft 401 kts 290°
2026-05-06 00:26 41.68784 -76.22948 30053 ft 398 kts 290°
2026-05-06 00:27 41.70761 -76.29898 30053 ft 398 kts 290°
2026-05-06 00:27 41.72500 -76.36084 30053 ft 399 kts 290°
2026-05-06 00:28 41.74166 -76.42041 30054 ft 396 kts 290°
2026-05-06 00:28 41.76096 -76.48950 30053 ft 394 kts 290°
2026-05-06 00:29 41.78024 -76.55829 30053 ft 395 kts 290°
2026-05-06 00:29 41.79942 -76.62719 30053 ft 395 kts 290°
2026-05-06 00:30 41.81835 -76.69595 30053 ft 392 kts 290°
2026-05-06 00:30 41.83712 -76.76458 30053 ft 392 kts 290°
2026-05-06 00:31 41.85582 -76.83315 30053 ft 391 kts 290°
2026-05-06 00:31 41.87448 -76.90164 29998 ft 391 kts 289°
2026-05-06 00:32 41.89318 -76.97059 29908 ft 391 kts 289°
2026-05-06 00:32 41.91177 -77.03874 29871 ft 392 kts 289°
2026-05-06 00:33 41.93045 -77.10758 29855 ft 392 kts 289°
2026-05-06 00:33 41.94884 -77.17614 29847 ft 391 kts 289°
2026-05-06 00:34 41.96718 -77.24492 29848 ft 391 kts 289°
2026-05-06 00:34 41.98560 -77.31427 29849 ft 391 kts 289°
2026-05-06 00:35 42.00383 -77.38287 29847 ft 389 kts 289°
2026-05-06 00:35 42.02221 -77.45118 29846 ft 388 kts 289°
2026-05-06 00:36 42.04069 -77.51920 29846 ft 388 kts 289°
2026-05-06 00:36 42.05911 -77.58726 29846 ft 387 kts 289°
2026-05-06 00:37 42.07738 -77.65507 29846 ft 386 kts 289°
2026-05-06 00:37 42.09561 -77.72290 29846 ft 386 kts 289°
2026-05-06 00:38 42.11379 -77.79067 29846 ft 386 kts 289°
2026-05-06 00:38 42.13205 -77.85858 29846 ft 385 kts 289°
2026-05-06 00:39 42.15079 -77.92657 29846 ft 385 kts 289°
2026-05-06 00:39 42.16899 -77.99408 29847 ft 385 kts 289°
2026-05-06 00:40 42.18712 -78.06219 29848 ft 385 kts 289°
2026-05-06 00:40 42.20510 -78.13015 29846 ft 386 kts 288°
2026-05-06 00:41 42.22305 -78.19823 29848 ft 385 kts 288°
2026-05-06 00:41 42.24110 -78.26673 29847 ft 385 kts 288°
2026-05-06 00:42 42.25828 -78.33501 29850 ft 385 kts 288°
2026-05-06 00:42 42.27522 -78.40351 29850 ft 385 kts 288°
2026-05-06 00:43 42.29215 -78.47215 29848 ft 385 kts 288°
2026-05-06 00:43 42.30931 -78.54053 29853 ft 385 kts 288°
2026-05-06 00:44 42.32635 -78.60890 29862 ft 385 kts 287°
2026-05-06 00:44 42.34319 -78.67739 29867 ft 385 kts 287°
2026-05-06 00:45 42.35989 -78.74583 29869 ft 385 kts 287°
2026-05-06 00:45 42.37655 -78.81434 29892 ft 382 kts 287°
2026-05-06 00:46 42.39298 -78.88308 29906 ft 382 kts 284°
2026-05-06 00:46 42.40221 -78.95401 29914 ft 382 kts 277°
2026-05-06 00:47 42.40718 -79.02427 29907 ft 381 kts 276°
2026-05-06 00:47 42.41196 -79.09681 29886 ft 382 kts 276°
2026-05-06 00:48 42.41656 -79.16821 29877 ft 382 kts 276°
2026-05-06 00:48 42.42110 -79.23979 29876 ft 382 kts 276°
2026-05-06 00:49 42.42558 -79.31126 29877 ft 382 kts 276°
2026-05-06 00:49 42.43006 -79.38266 29878 ft 382 kts 276°
2026-05-06 00:50 42.43479 -79.45415 29880 ft 381 kts 276°
2026-05-06 00:50 42.43961 -79.52574 29889 ft 380 kts 276°
2026-05-06 00:51 42.44410 -79.59688 29889 ft 380 kts 276°
2026-05-06 00:51 42.44838 -79.66788 29889 ft 379 kts 276°
2026-05-06 00:52 42.45255 -79.73897 29899 ft 377 kts 276°
2026-05-06 00:52 42.45616 -79.80102 29903 ft 377 kts 276°
2026-05-06 00:53 42.46028 -79.87210 29894 ft 376 kts 276°
2026-05-06 00:53 42.46436 -79.94272 29895 ft 376 kts 276°
2026-05-06 00:54 42.46836 -80.01312 29910 ft 375 kts 275°
2026-05-06 00:54 42.47230 -80.08336 29907 ft 375 kts 276°
2026-05-06 00:55 42.47616 -80.15331 29900 ft 375 kts 275°
2026-05-06 00:55 42.48005 -80.22419 29903 ft 374 kts 275°
2026-05-06 00:56 42.48425 -80.29429 29898 ft 374 kts 276°
2026-05-06 00:56 42.48832 -80.36450 29888 ft 374 kts 276°
2026-05-06 00:57 42.49216 -80.43481 29892 ft 373 kts 275°
2026-05-06 00:57 42.49584 -80.50482 29901 ft 373 kts 275°
2026-05-06 00:58 42.49945 -80.57474 29892 ft 373 kts 275°
2026-05-06 00:58 42.50306 -80.64479 29885 ft 372 kts 275°
2026-05-06 00:59 42.50593 -80.71461 29877 ft 371 kts 274°
2026-05-06 00:59 42.50823 -80.78472 29870 ft 370 kts 274°
2026-05-06 01:00 42.51059 -80.85421 29866 ft 370 kts 274°
2026-05-06 01:00 42.51300 -80.92346 29854 ft 367 kts 273°
2026-05-06 01:01 42.51516 -80.99240 29846 ft 367 kts 273°
2026-05-06 01:01 42.51719 -81.06128 29843 ft 366 kts 273°
2026-05-06 01:02 42.51917 -81.13056 29844 ft 366 kts 273°
2026-05-06 01:02 42.52109 -81.19942 29845 ft 366 kts 273°
2026-05-06 01:03 42.52318 -81.26611 29845 ft 364 kts 276°
2026-05-06 01:03 42.52928 -81.33149 29844 ft 364 kts 278°
2026-05-06 01:04 42.53725 -81.39850 29846 ft 361 kts 278°
2026-05-06 01:04 42.54510 -81.46625 29846 ft 362 kts 278°
2026-05-06 01:05 42.55278 -81.53380 29846 ft 360 kts 278°
2026-05-06 01:05 42.56029 -81.60085 29846 ft 357 kts 278°
2026-05-06 01:06 42.56767 -81.66744 29846 ft 357 kts 278°
2026-05-06 01:06 42.57500 -81.73371 29846 ft 355 kts 278°
2026-05-06 01:07 42.58258 -81.79972 29846 ft 355 kts 278°
2026-05-06 01:07 42.59004 -81.86613 29846 ft 354 kts 278°
2026-05-06 01:08 42.59734 -81.93203 29846 ft 353 kts 278°
2026-05-06 01:08 42.60455 -81.99786 29846 ft 353 kts 278°
2026-05-06 01:09 42.61169 -82.06366 29847 ft 354 kts 278°
2026-05-06 01:09 42.61905 -82.12958 29847 ft 354 kts 278°
2026-05-06 01:10 42.62622 -82.19579 29846 ft 354 kts 278°
2026-05-06 01:10 42.63320 -82.26160 29846 ft 353 kts 278°
2026-05-06 01:11 42.64017 -82.32824 29847 ft 356 kts 278°
2026-05-06 01:11 42.64707 -82.39470 29847 ft 356 kts 278°
2026-05-06 01:12 42.65394 -82.46101 29846 ft 355 kts 278°
2026-05-06 01:12 42.66088 -82.52733 29846 ft 353 kts 278°
2026-05-06 01:13 42.66784 -82.59295 29846 ft 351 kts 278°
2026-05-06 01:13 42.67351 -82.64748 29846 ft 349 kts 278°
2026-05-06 01:14 42.68363 -82.74539 29847 ft 349 kts 278°
2026-05-06 01:14 42.69033 -82.81046 29846 ft 347 kts 278°
2026-05-06 01:15 42.69688 -82.87587 29846 ft 347 kts 278°
2026-05-06 01:15 42.70328 -82.94058 29846 ft 346 kts 278°
2026-05-06 01:16 42.70967 -83.00541 29846 ft 346 kts 278°
2026-05-06 01:16 42.71684 -83.07014 29846 ft 346 kts 279°
2026-05-06 01:17 42.72441 -83.13488 29846 ft 346 kts 279°
2026-05-06 01:17 42.73188 -83.19953 29846 ft 346 kts 279°
2026-05-06 01:18 42.73930 -83.26419 29846 ft 346 kts 278°
2026-05-06 01:18 42.74667 -83.32887 29846 ft 346 kts 278°
2026-05-06 01:19 42.75401 -83.39364 29846 ft 346 kts 278°
2026-05-06 01:19 42.76132 -83.45835 29846 ft 347 kts 278°
2026-05-06 01:20 42.76889 -83.52154 29846 ft 347 kts 278°
2026-05-06 01:20 42.77654 -83.58692 29846 ft 347 kts 278°
2026-05-06 01:21 42.78393 -83.65228 29846 ft 347 kts 278°
2026-05-06 01:21 42.79113 -83.71719 29846 ft 348 kts 277°
2026-05-06 01:22 42.79826 -83.78223 29846 ft 348 kts 277°
2026-05-06 01:22 42.80537 -83.84726 29846 ft 347 kts 277°
2026-05-06 01:23 42.81247 -83.91217 29846 ft 347 kts 278°
2026-05-06 01:23 42.81956 -83.97716 29846 ft 347 kts 277°
2026-05-06 01:24 42.82657 -84.04207 29846 ft 347 kts 278°
2026-05-06 01:24 42.83353 -84.10690 29846 ft 346 kts 277°
2026-05-06 01:25 42.84075 -84.17212 29853 ft 347 kts 277°
2026-05-06 01:25 42.84799 -84.23736 29863 ft 347 kts 277°
2026-05-06 01:26 42.85497 -84.30233 29865 ft 347 kts 277°
2026-05-06 01:26 42.86178 -84.36697 29865 ft 347 kts 277°
2026-05-06 01:27 42.86861 -84.43245 29872 ft 348 kts 276°
2026-05-06 01:27 42.87540 -84.49797 29874 ft 348 kts 276°
2026-05-06 01:28 42.88072 -84.56325 29876 ft 347 kts 271°
2026-05-06 01:28 42.87821 -84.63013 29874 ft 348 kts 266°
2026-05-06 01:29 42.87233 -84.69606 29874 ft 349 kts 264°
2026-05-06 01:29 42.86568 -84.76145 29876 ft 348 kts 264°
2026-05-06 01:30 42.85888 -84.82709 29876 ft 348 kts 264°
2026-05-06 01:30 42.85205 -84.89249 29874 ft 349 kts 264°
2026-05-06 01:31 42.84526 -84.95833 29874 ft 349 kts 264°
2026-05-06 01:31 42.83819 -85.02356 29876 ft 348 kts 264°
2026-05-06 01:32 42.83130 -85.08876 29875 ft 348 kts 264°
2026-05-06 01:32 42.82446 -85.15416 29875 ft 349 kts 264°
2026-05-06 01:33 42.81738 -85.21974 29875 ft 348 kts 264°
2026-05-06 01:33 42.81025 -85.28492 29876 ft 348 kts 264°
2026-05-06 01:34 42.80305 -85.35007 29876 ft 348 kts 264°
2026-05-06 01:34 42.79582 -85.41516 29876 ft 348 kts 264°
2026-05-06 01:35 42.78853 -85.48072 29876 ft 348 kts 264°
2026-05-06 01:35 42.77888 -85.54535 29876 ft 350 kts 259°
2026-05-06 01:36 42.76687 -85.60955 29876 ft 350 kts 259°
2026-05-06 01:36 42.75513 -85.67379 29876 ft 350 kts 260°
2026-05-06 01:37 42.74349 -85.73838 29876 ft 350 kts 260°
2026-05-06 01:37 42.73197 -85.80271 29876 ft 350 kts 260°
2026-05-06 01:38 42.72030 -85.86690 29876 ft 350 kts 260°
2026-05-06 01:38 42.70847 -85.93149 29876 ft 350 kts 260°
2026-05-06 01:39 42.69668 -85.99566 29876 ft 350 kts 260°
2026-05-06 01:39 42.69074 -86.02798 29677 ft 347 kts 259°
2026-05-06 01:39 42.68502 -86.05927 29193 ft 338 kts 259°
2026-05-06 01:40 42.67938 -86.09024 28581 ft 335 kts 259°
2026-05-06 01:40 42.67377 -86.12077 27971 ft 337 kts 258°
2026-05-06 01:40 42.66797 -86.15214 27319 ft 349 kts 257°
2026-05-06 01:40 42.66199 -86.18436 26650 ft 359 kts 257°
2026-05-06 01:41 42.65582 -86.21760 25958 ft 365 kts 256°
2026-05-06 01:41 42.64977 -86.25011 25362 ft 371 kts 256°
2026-05-06 01:41 42.64533 -86.27451 24834 ft 375 kts 256°
2026-05-06 01:41 42.63917 -86.30884 24287 ft 377 kts 255°
2026-05-06 01:42 42.63075 -86.35438 23525 ft 366 kts 260°
2026-05-06 01:42 42.62492 -86.38476 22901 ft 373 kts 265°
2026-05-06 01:42 42.61849 -86.41942 22321 ft 383 kts 264°
2026-05-06 01:42 42.61195 -86.45441 21733 ft 386 kts 263°
2026-05-06 01:43 42.60523 -86.49004 21138 ft 385 kts 263°
2026-05-06 01:43 42.59859 -86.52512 20532 ft 377 kts 263°
2026-05-06 01:43 42.59211 -86.55929 19954 ft 371 kts 262°
2026-05-06 01:43 42.58579 -86.59258 19380 ft 365 kts 262°
2026-05-06 01:44 42.57943 -86.62621 18829 ft 358 kts 260°
2026-05-06 01:44 42.57326 -86.65854 18268 ft 353 kts 259°
2026-05-06 01:44 42.56715 -86.69053 17695 ft 348 kts 259°
2026-05-06 01:44 42.56109 -86.72191 17159 ft 343 kts 258°
2026-05-06 01:45 42.55389 -86.75290 16601 ft 345 kts 255°
2026-05-06 01:45 42.54576 -86.78367 16059 ft 350 kts 253°
2026-05-06 01:45 42.53714 -86.81457 15499 ft 352 kts 252°
2026-05-06 01:45 42.52852 -86.84556 14918 ft 356 kts 252°
2026-05-06 01:46 42.51999 -86.87631 14355 ft 357 kts 251°
2026-05-06 01:46 42.51101 -86.90885 13715 ft 353 kts 251°
2026-05-06 01:46 42.50243 -86.94002 13096 ft 351 kts 251°
2026-05-06 01:46 42.49400 -86.97069 12496 ft 348 kts 251°
2026-05-06 01:47 42.48572 -87.00085 12276 ft 334 kts 251°
2026-05-06 01:47 42.47785 -87.02953 12234 ft 317 kts 251°
2026-05-06 01:47 42.47033 -87.05696 12080 ft 305 kts 251°
2026-05-06 01:47 42.46312 -87.08328 11924 ft 294 kts 251°
2026-05-06 01:48 42.45611 -87.10886 11771 ft 285 kts 251°
2026-05-06 01:48 42.44933 -87.13382 11621 ft 276 kts 251°
2026-05-06 01:48 42.44498 -87.14976 11526 ft 270 kts 251°
2026-05-06 01:48 42.43642 -87.18099 11336 ft 259 kts 251°
2026-05-06 01:49 42.43223 -87.19626 11246 ft 254 kts 251°
2026-05-06 01:49 42.42414 -87.22561 11070 ft 244 kts 251°
2026-05-06 01:49 42.41833 -87.24669 10947 ft 237 kts 251°
2026-05-06 01:49 42.41451 -87.26052 10866 ft 232 kts 250°
2026-05-06 01:50 42.40889 -87.28088 10747 ft 225 kts 250°
2026-05-06 01:50 42.40343 -87.30065 10637 ft 228 kts 250°
2026-05-06 01:50 42.39789 -87.32138 10522 ft 235 kts 252°
2026-05-06 01:50 42.39248 -87.34231 10401 ft 236 kts 250°
2026-05-06 01:51 42.38667 -87.36295 10279 ft 233 kts 250°
2026-05-06 01:51 42.38097 -87.38311 10155 ft 226 kts 250°
2026-05-06 01:51 42.37541 -87.40284 10040 ft 224 kts 250°
2026-05-06 01:51 42.36981 -87.42281 9848 ft 232 kts 250°
2026-05-06 01:52 42.36396 -87.44368 9598 ft 237 kts 250°
2026-05-06 01:52 42.35808 -87.46474 9325 ft 240 kts 250°
2026-05-06 01:52 42.35232 -87.48541 9059 ft 239 kts 250°
2026-05-06 01:52 42.34622 -87.50684 8783 ft 237 kts 245°
2026-05-06 01:53 42.33606 -87.52386 8568 ft 236 kts 219°
2026-05-06 01:53 42.32138 -87.53393 8271 ft 240 kts 205°
2026-05-06 01:53 42.30580 -87.54181 8012 ft 238 kts 201°
2026-05-06 01:53 42.29005 -87.54761 7827 ft 233 kts 195°
2026-05-06 01:54 42.27403 -87.55231 7577 ft 230 kts 194°
2026-05-06 01:54 42.25864 -87.55707 7295 ft 229 kts 194°
2026-05-06 01:54 42.24303 -87.56222 7002 ft 228 kts 194°
2026-05-06 01:54 42.22762 -87.56735 6712 ft 227 kts 194°
2026-05-06 01:55 42.21229 -87.57216 6400 ft 228 kts 188°
2026-05-06 01:55 42.19661 -87.57933 5652 ft 252 kts 194°
2026-05-06 01:55 42.17933 -87.58817 4838 ft 276 kts 193°
2026-05-06 01:55 42.16113 -87.59660 4503 ft 278 kts 194°
2026-05-06 01:56 42.14284 -87.60477 4374 ft 278 kts 194°
2026-05-06 01:56 42.12425 -87.61271 4279 ft 271 kts 194°
2026-05-06 01:56 42.10664 -87.62003 4149 ft 261 kts 194°
2026-05-06 01:56 42.08961 -87.62691 4072 ft 249 kts 194°
2026-05-06 01:57 42.07348 -87.63332 3995 ft 237 kts 194°
2026-05-06 01:57 42.05779 -87.63945 3959 ft 227 kts 194°
2026-05-06 01:57 42.04282 -87.64524 3957 ft 222 kts 194°
2026-05-06 01:57 42.02819 -87.65092 3962 ft 219 kts 194°
2026-05-06 01:58 42.01352 -87.65663 3931 ft 220 kts 194°
2026-05-06 01:58 41.99851 -87.66261 3804 ft 225 kts 190°
2026-05-06 01:58 41.98343 -87.66804 3648 ft 222 kts 208°
2026-05-06 01:58 41.97333 -87.68223 3510 ft 205 kts 250°
2026-05-06 01:59 41.97056 -87.70024 3318 ft 199 kts 265°
2026-05-06 01:59 41.96950 -87.71870 3075 ft 192 kts 271°
2026-05-06 01:59 41.96933 -87.73631 2802 ft 182 kts 274°
2026-05-06 01:59 41.96932 -87.75258 2556 ft 172 kts 274°
2026-05-06 02:00 41.96930 -87.76822 2335 ft 162 kts 275°
2026-05-06 02:00 41.96929 -87.78279 2128 ft 151 kts 274°
2026-05-06 02:00 41.96927 -87.79650 1921 ft 139 kts 274°
2026-05-06 02:00 41.96925 -87.80867 1795 ft 128 kts 274°
2026-05-06 02:01 41.96923 -87.82076 1576 ft 133 kts 273°
2026-05-06 02:01 41.96921 -87.83320 1426 ft 135 kts 272°
2026-05-06 02:01 41.96920 -87.84591 1242 ft 135 kts 272°
2026-05-06 02:01 41.96918 -87.85845 1059 ft 133 kts 271°
2026-05-06 02:02 41.96917 -87.86589 953 ft 132 kts 271°
2026-05-06 02:08 41.96915 -87.87580 813 ft 131 kts 270°
2026-05-06 02:08 41.96912 -87.88796 696 ft 127 kts 269°
2026-05-06 02:08 41.96902 -87.89852 676 ft 88 kts 270°
2026-05-06 02:09 41.96907 -87.90273 676 ft 10 kts 272°
2026-05-06 02:09 41.96917 -87.90354 676 ft 7 kts 329°
2026-05-06 02:09 41.96955 -87.90339 676 ft 7 kts 43°
2026-05-06 02:09 41.96987 -87.90278 676 ft 10 kts 57°
2026-05-06 02:10 41.97022 -87.90206 676 ft 9 kts 57°
2026-05-06 02:10 41.97052 -87.90144 676 ft 5 kts 50°
2026-05-06 02:10 41.97090 -87.90118 676 ft 7 kts 14°
2026-05-06 02:10 41.97146 -87.90120 676 ft 9 kts 354°
2026-05-06 02:11 41.97205 -87.90151 676 ft 10 kts 319°
2026-05-06 02:11 41.97266 -87.90181 676 ft 10 kts 345°
2026-05-06 02:11 41.97305 -87.90235 676 ft 4 kts 299°
2026-05-06 02:11 41.97314 -87.90257 676 ft 4 kts 299°
2026-05-06 02:12 41.97316 -87.90260 676 ft 0 kts 299°